Location: Hains Lake
(37.8540°N, 99.8578°W)
Time: 20:07:38
(UTC+00:00)

Courier 1B Rocket - Pass Details

Date: 24 April 2021
Orbit: 920 x 1202 km, 28.2° (Epoch: 05 May)

Event Time Altitude Azimuth Distance (km) Brightness Sun altitude
Rises 04:33:48 0° 262° (W) 3,733 8.4 -31.5°
Reaches altitude 10° 04:36:46 10° 251° (WSW) 2,827 7.6 -31.8°
Enters shadow 04:39:13 20° 235° (SW) 2,220 6.8 -32.1°
